Flag for Switzerland Weather past 2 weeks in La-Chaux-de-Fonds, Neuchâtel, Switzerland

Now
61 °F

Passing clouds.


Feels Like: 61 °F
Forecast: 45 / 58 °F
Wind: 10 mph from Southwest

Location: Les Eplatures

Current Time: May 29, 2015 at 11:12:08 AM

Latest Report: May 29, 2015 at 10:50 AM


Visibility: N/A

Pressure: 29.98 "Hg

Humidity: 55%

Dew point: 45 °F

Location of La-Chaux-de-FondsLocation

Historic Weather in La-Chaux-de-Fonds — Graph

°F

La-Chaux-de-Fonds temperature yesterday

Maximum temperature yesterday: 63 °F (at 3:20 PM)
Minimum temperature yesterday: 34 °F (at 3:50 AM)
Average temperature yesterday: 50 °F

Past Weeks' High & Low Weather Summary

 TemperatureHumidityPressure
High66 °F (May 18, 4:20 PM)100% (May 15, 7:20 PM)30.36 "Hg (May 15, 7:20 PM)
Low34 °F (May 15, 12:50 PM)34% (May 28, 3:20 PM)29.86 "Hg (May 18, 5:50 PM)
Average47 °F77%30.09 "Hg
* Reported May 14 9:20 AM — May 29 9:50 AM, La-Chaux-de-Fonds, Weather by CustomWeather, © 2015

Note: Actual official high and low records may vary slightly from our data, if they occured in-between our weather recording intervals... More about our weather records

Advertising

La-Chaux-de-Fonds weather history for previous 24 hours

 ConditionsComfort  
Time TempWeatherWind HumidityBarometerVisibility
9:50 AM
Fri, May 29
61 °FSunny.5 mph59%29.98 "Hg10 mi
9:20 AM57 °FSunny.5 mph63%29.98 "Hg10 mi
8:50 AM55 °FPassing clouds.5 mph63%29.98 "HgN/A
8:20 AM52 °FScattered clouds.No wind82%29.98 "HgN/A
7:50 AM52 °FSunny.1 mph82%30.01 "Hg10 mi
7:20 AM48 °FLight rain. Clear.1 mph94%29.98 "HgN/A
6:50 AM48 °FClear.No wind94%30.01 "Hg10 mi
6:20 AM48 °FClear.1 mph87%30.01 "Hg10 mi
5:20 AM46 °FClear.3 mph87%30.01 "Hg10 mi
4:50 AM46 °FClear.1 mph87%30.01 "HgN/A
4:20 AM46 °FClear.1 mph87%30.01 "Hg10 mi
3:50 AM45 °FClear.1 mph87%30.04 "HgN/A
3:20 AM46 °FClear.2 mph82%30.04 "Hg10 mi
2:50 AM45 °FClear.1 mph87%30.04 "Hg10 mi
2:20 AM45 °FClear.No wind81%30.07 "HgN/A
1:50 AM43 °FClear.No wind87%30.07 "HgN/A
1:20 AM45 °FClear.No wind81%30.07 "Hg10 mi
12:50 AM45 °FClear.No wind87%30.07 "Hg10 mi
11:50 PM
Thu, May 28
46 °FCool.1 mph82%30.09 "HgN/A
11:20 PM48 °FClear.3 mph76%30.09 "HgN/A
10:50 PM48 °FSunny.2 mph76%30.09 "Hg10 mi
10:20 PM50 °FSunny.2 mph71%30.09 "Hg10 mi
9:50 PM50 °FClear.2 mph71%30.09 "HgN/A
9:20 PM52 °FSunny.3 mph67%30.09 "Hg10 mi
8:50 PM55 °FPassing clouds.5 mph59%30.09 "HgN/A
8:20 PM57 °FPassing clouds.5 mph55%30.07 "HgN/A
7:50 PM59 °FPassing clouds.6 mph51%30.07 "HgN/A
7:20 PM61 °FSunny.8 mph45%30.07 "Hg10 mi
6:50 PM61 °FSunny.8 mph48%30.07 "Hg10 mi
6:20 PM61 °FSunny.9 mph48%30.07 "Hg10 mi
5:50 PM63 °FPassing clouds.9 mph45%30.07 "HgN/A
5:20 PM63 °FMild.9 mph45%30.07 "HgN/A
4:50 PM63 °FPassing clouds.10 mph45%30.09 "HgN/A
4:20 PM63 °FSunny.8 mph39%30.09 "Hg10 mi
3:50 PM63 °FSunny.7 mph39%30.09 "Hg10 mi
3:20 PM63 °FPassing clouds.8 mph34%30.09 "HgN/A
2:50 PM61 °FSunny.7 mph36%30.09 "Hg10 mi
2:20 PM61 °FSunny.8 mph42%30.09 "Hg10 mi
1:50 PM61 °FSunny.7 mph36%30.12 "Hg10 mi
1:20 PM59 °FSunny.7 mph51%30.12 "Hg10 mi
12:50 PM61 °FPassing clouds.5 mph52%30.12 "HgN/A
12:20 PM61 °FSunny.3 mph52%30.12 "Hg10 mi
11:50 AM57 °FSunny.2 mph48%30.12 "Hg10 mi
11:20 AM55 °FPassing clouds.5 mph47%30.12 "HgN/A
Weather by CustomWeather, © 2015

See weather overviewHow to use our weather pages